[[{"header":{"parameterUnit":"m.s-1","parameterCategory":1,"la1":30.2991,"la2":30.254,"lo1":-89.0895,"lo2":-89.0444,"dy":0.0017,"dx":0.0017,"nx":28,"ny":28,"refTime":"2025-04-06T03:00:00:Z","depth":0,"parameterNumber":2,"parameterNumberName":"U-component_of_WINDS"},"data":[0,0,0,0,0,0,0,0,0,0,0,0,0,0,0,0,0,0,0,0,0,0,0,0,0,0,0,0,0,0,0,0,0,0,0,0,0,0,0,0,0,0,0,0,0,0,0,0,0,0,0,0,0,0,0,0,0,0,3.1458,3.1463,0,3.1976,3.1981,3.1987,3.2153,3.2151,3.2149,3.2146,3.2672,3.2688,3.2704,0,0,0,0,0,0,0,0,0,0,0,0,0,3.0605,3.0619,3.1457,3.1464,3.147,3.1975,3.1982,3.1989,3.2154,3.2151,3.2148,3.2145,3.2667,3.2686,3.2706,0,0,0,0,0,0,0,0,0,0,0,0,0,3.1034,3.0624,3.1456,3.1614,3.1633,3.1973,3.1982,3.1991,3.2154,3.2151,3.2147,3.2144,3.2661,3.2684,3.2708,3.2928,0,0,3.2782,3.2793,0,0,0,0,0,0,0,0,3.1009,3.1065,3.1584,3.1603,3.1626,3.1996,3.1874,3.2305,3.2155,3.1956,3.2146,3.2142,3.245,3.2491,3.2596,3.2953,3.2975,3.2785,3.2799,3.281,3.2817,0,0,0,0,0,0,0,3.0979,3.1043,3.1662,3.1591,3.1617,3.1656,3.1713,3.1956,3.2216,3.1973,3.1987,3.2046,3.2461,3.2572,3.261,3.2983,3.2784,3.2805,3.282,3.283,3.3543,3.3547,0,0,0,0,0,0,3.0924,3.1018,3.1646,3.1678,3.1303,3.1674,3.1738,3.1881,3.2214,3.2262,3.2048,3.2052,3.2533,3.2581,3.2629,3.2907,3.2809,3.2832,3.2846,3.3538,3.3544,3.3548,0,0,0,0,0,0,3.0905,3.0978,3.1625,3.1352,3.1437,3.1693,3.1851,3.1893,3.2005,3.2271,3.2317,3.2115,3.2532,3.2595,3.2852,3.2928,3.2843,3.2865,3.3533,3.354,3.3546,3.3466,0,0,0,0,0,0,3.088,3.097,3.1059,3.1352,3.1451,3.1842,3.1856,3.1905,3.2047,3.2056,3.2346,3.2391,3.2534,3.2815,3.2876,3.296,3.2884,3.3528,3.3536,3.3544,3.3463,3.3469,3.3474,0,0,0,0,0,3.0849,3.1015,3.1062,3.1137,3.1567,3.1846,3.1902,3.2065,3.2052,3.2142,3.2312,3.2381,3.2909,3.284,3.291,3.3002,3.3524,3.3534,3.3543,3.346,3.3468,3.3474,0,0,0,0,0,0,3.0723,3.1057,3.1113,3.138,3.1583,3.1873,3.1992,3.2068,3.2278,3.2278,3.2469,3.2533,3.2775,3.2915,3.2832,3.3231,3.3219,3.3243,3.3132,3.3141,3.3146,3.3108,3.2904,0,0,0,0,0,3.0726,3.0927,3.1207,3.1415,3.1515,3.1735,3.1862,3.197,3.2188,3.2274,3.2464,3.2671,3.2883,3.3019,3.323,3.3482,3.3547,3.358,3.3585,3.3588,3.3607,3.3749,3.3766,3.3581,3.3581,3.358,0,0,3.0736,3.0943,3.1058,3.1395,3.1566,3.1767,3.1807,3.2019,3.2169,3.2307,3.2562,3.2706,3.295,3.3205,3.3327,3.3329,3.3672,3.3601,3.3601,3.362,3.3761,3.3778,3.3793,3.3587,3.3586,3.3585,0,0,3.0856,3.1033,3.1226,3.1395,3.1652,3.1797,3.1842,3.2121,3.2223,3.2482,3.2589,3.2768,3.3131,3.33,3.3432,3.361,3.3681,3.3673,3.3703,3.3838,3.3853,3.3866,3.3929,3.3949,3.3691,3.3691,3.3691,0,3.0835,3.1145,3.1315,3.1522,3.1665,3.1798,3.1993,3.2148,3.246,3.2555,3.2552,3.3007,3.3181,3.3476,3.3519,3.3622,3.3678,3.3643,3.3837,3.3853,3.3868,3.393,3.3953,3.3688,3.3688,3.3689,3.3689,0,3.1106,3.1318,3.1442,3.1741,3.1899,3.2097,3.2294,3.2433,3.2524,3.2668,3.2928,3.314,3.3394,3.3471,3.3563,3.3779,3.3771,3.38,3.3793,3.388,3.3941,3.3966,3.3684,3.3685,3.3686,3.3687,0,0,3.1166,3.1553,3.1596,3.1732,3.2023,3.219,3.2392,3.2642,3.2756,3.2964,3.3138,3.3439,3.3467,3.3617,3.3728,3.3846,3.3972,3.3861,3.3869,3.3874,3.422,3.4197,3.4222,3.4019,3.4024,3.4028,3.4199,0,3.1324,3.1696,3.1852,3.215,3.2347,3.2473,3.265,3.2845,3.2983,3.3168,3.332,3.353,3.3551,3.3642,3.3765,3.393,3.4044,3.392,3.4181,3.4188,3.4118,3.4255,3.4233,3.4384,3.4224,3.4228,3.4232,0,3.156,3.1771,3.2088,3.2353,3.2441,3.2598,3.2837,3.3013,3.3235,3.3327,3.3492,3.3597,3.3811,3.3786,3.4082,3.3994,3.4109,3.4206,3.4215,3.4248,3.4216,3.429,3.4437,3.4459,3.4271,3.4268,3.4265,0,3.1572,3.1934,3.2171,3.2283,3.2598,3.2704,3.2839,3.3059,3.3198,3.3405,3.3496,3.3725,3.385,3.4023,3.4185,3.4153,3.4465,3.4455,3.4546,3.4541,3.4608,3.4602,3.4775,3.4679,3.4679,3.4679,3.4678,0,3.1733,3.1922,3.218,3.2326,3.254,3.2715,3.2922,3.3065,3.3259,3.3432,3.3553,3.3713,3.3916,3.41,3.4227,3.4452,3.4507,3.4586,3.4617,3.4576,3.4566,3.4656,3.4649,3.4685,3.4684,3.4682,3.4681,0,3.1784,3.1965,3.2231,3.2506,3.2579,3.2724,3.2959,3.3103,3.3244,3.3462,3.3523,3.3745,3.3968,3.4145,3.4436,3.4521,3.4756,3.4792,3.4682,3.4699,3.4779,3.4769,3.5017,3.5058,3.4933,3.4934,3.4935,0,3.1876,3.2025,3.2315,3.2441,3.2575,3.2776,3.2917,3.3093,3.3235,3.3497,3.3609,3.384,3.4035,3.4384,3.457,3.4791,3.4833,3.4904,3.4867,3.4819,3.4834,3.4823,3.4838,3.4908,3.4909,3.4909,3.491,0,3.202,3.2101,3.2302,3.2533,3.2699,3.2889,3.3082,3.3176,3.3386,3.3539,3.3769,3.3919,3.4215,3.4442,3.4682,3.4818,3.4898,3.4919,3.4952,3.4912,3.4842,3.488,3.4694,3.4914,3.4913,3.4913,3.4913,3.4913,3.2096,3.2233,3.2458,3.2676,3.2839,3.3015,3.3163,3.3323,3.3518,3.3774,3.3864,3.4099,3.4313,3.4644,3.4781,3.4965,3.4972,3.5019,3.5032,3.5041,3.5035,3.4811,3.501,3.501,3.501,3.501,3.501,0,3.2246,3.2396,3.2595,3.2861,3.3031,3.3091,3.3306,3.3444,3.365,3.3844,3.4032,3.4293,3.4513,3.4714,3.4942,3.505,3.5092,3.5104,3.5099,3.5128,3.5017,3.4966,3.5066,3.5066,3.5066,3.5066,3.5066,3.5066,3.2345,3.2579,3.2685,3.3,3.3148,3.3381,3.3498,3.3659,3.3815,3.4102,3.4285,3.4415,3.461,3.4853,3.5055,3.5108,3.5186,3.5189,3.5251,3.5144,3.5136,3.5129,3.5082,3.5204,3.5204,3.5347,3.5348,3.5349]},{"header":{"parameterUnit":"m.s-1","parameterCategory":1,"la1":30.2991,"la2":30.254,"lo1":-89.0895,"lo2":-89.0444,"dy":0.0017,"dx":0.0017,"nx":28,"ny":28,"refTime":"2025-04-06T03:00:00:Z","depth":0,"parameterNumber":3,"parameterNumberName":"V-component_of_WINDS"},"data":[0,0,0,0,0,0,0,0,0,0,0,0,0,0,0,0,0,0,0,0,0,0,0,0,0,0,0,0,0,0,0,0,0,0,0,0,0,0,0,0,0,0,0,0,0,0,0,0,0,0,0,0,0,0,0,0,0,0,5.1029,5.1034,0,5.1457,5.1461,5.1466,5.1541,5.1538,5.1534,5.1531,5.1978,5.1993,5.2008,0,0,0,0,0,0,0,0,0,0,0,0,0,5.0282,5.0295,5.1029,5.1034,5.1039,5.1456,5.1462,5.1468,5.1542,5.1537,5.1533,5.1529,5.1973,5.1991,5.201,0,0,0,0,0,0,0,0,0,0,0,0,0,5.0648,5.0299,5.1028,5.1126,5.114,5.1455,5.1462,5.1469,5.1543,5.1537,5.1532,5.1527,5.1967,5.199,5.2012,5.2262,0,0,5.2082,5.2092,0,0,0,0,0,0,0,0,5.0627,5.0675,5.1107,5.112,5.1135,5.144,5.1363,5.1735,5.1544,5.139,5.1531,5.1524,5.1804,5.184,5.1933,5.2283,5.2302,5.2084,5.2098,5.2108,5.2114,0,0,0,0,0,0,0,5.0601,5.0657,5.1198,5.1113,5.1131,5.1151,5.1197,5.1433,5.1623,5.1403,5.1409,5.1458,5.1811,5.191,5.1944,5.2309,5.2084,5.2104,5.2118,5.2127,5.2882,5.2888,0,0,0,0,0,0,5.0557,5.0635,5.1185,5.1211,5.0862,5.1169,5.122,5.1348,5.162,5.1656,5.1463,5.146,5.1874,5.1917,5.196,5.2269,5.2108,5.2129,5.2142,5.2876,5.2884,5.2891,0,0,0,0,0,0,5.0541,5.0606,5.1168,5.0925,5.0998,5.1187,5.133,5.1359,5.1458,5.1665,5.17,5.1529,5.1871,5.1927,5.2185,5.2285,5.214,5.216,5.2869,5.2878,5.2887,5.2889,0,0,0,0,0,0,5.0519,5.0599,5.0695,5.0927,5.1011,5.1384,5.1336,5.1371,5.1496,5.1498,5.1737,5.1771,5.1871,5.215,5.2207,5.2314,5.2178,5.2861,5.2873,5.2884,5.2881,5.2897,5.2911,0,0,0,0,0,5.0492,5.0682,5.07,5.0766,5.1134,5.139,5.1438,5.1547,5.1504,5.1603,5.1735,5.1763,5.2264,5.2176,5.2241,5.2356,5.2855,5.287,5.2883,5.2874,5.2894,5.2911,0,0,0,0,0,0,5.0462,5.0714,5.0737,5.1007,5.1175,5.1401,5.153,5.1565,5.1753,5.1746,5.1876,5.1929,5.2179,5.2294,5.2191,5.2611,5.2557,5.2585,5.2527,5.2548,5.2563,5.2531,5.2197,0,0,0,0,0,5.0486,5.0669,5.0881,5.1098,5.1181,5.134,5.1456,5.1524,5.1706,5.1779,5.193,5.2108,5.2305,5.2432,5.2626,5.2896,5.295,5.3007,5.3022,5.3034,5.3058,5.3208,5.3236,5.2937,5.2937,5.2937,0,0,5.0539,5.0699,5.0808,5.1096,5.1235,5.1424,5.1401,5.1602,5.1744,5.1811,5.2062,5.2178,5.2385,5.2649,5.2773,5.2752,5.3151,5.3052,5.306,5.3078,5.3225,5.3253,5.3278,5.2947,5.2945,5.2944,0,0,5.0732,5.0871,5.1066,5.1204,5.1413,5.1517,5.1562,5.1783,5.1862,5.2114,5.2167,5.2338,5.2676,5.282,5.2937,5.3178,5.3211,5.3237,5.3318,5.3463,5.3487,5.3508,5.3594,5.3623,5.3259,5.3259,5.3259,0,5.0773,5.1057,5.1163,5.1361,5.1486,5.1549,5.1747,5.1877,5.214,5.2225,5.2196,5.2618,5.2762,5.306,5.3117,5.321,5.3268,5.3212,5.3474,5.3497,5.3518,5.3602,5.3634,5.3261,5.3261,5.3261,5.3261,0,5.1096,5.1292,5.1425,5.1671,5.181,5.2008,5.2145,5.2273,5.2327,5.2434,5.269,5.2863,5.3091,5.3166,5.3224,5.3473,5.3453,5.3447,5.3396,5.3547,5.3627,5.366,5.3264,5.3263,5.3263,5.3262,0,0,5.1288,5.1585,5.1632,5.1743,5.1975,5.213,5.2329,5.2547,5.2655,5.2832,5.3004,5.3284,5.3279,5.3412,5.3486,5.3612,5.3791,5.3592,5.3599,5.3623,5.4075,5.4079,5.4114,5.3812,5.3819,5.3824,5.4058,0,5.1509,5.1863,5.1962,5.2263,5.2444,5.2504,5.2677,5.2839,5.2942,5.3113,5.3229,5.3426,5.3404,5.3484,5.3612,5.3742,5.3883,5.3726,5.3976,5.3983,5.3924,5.4156,5.4162,5.4375,5.409,5.4095,5.4099,0,5.1816,5.1993,5.231,5.2514,5.2594,5.2748,5.2955,5.3116,5.33,5.3367,5.3512,5.3573,5.3784,5.3718,5.4011,5.3902,5.4009,5.4088,5.4099,5.4129,5.4052,5.4194,5.4445,5.4477,5.415,5.4146,5.4142,0,5.1923,5.2242,5.2472,5.2565,5.281,5.2916,5.3023,5.3201,5.3325,5.3506,5.3587,5.3791,5.3904,5.4062,5.4176,5.4118,5.446,5.4404,5.4523,5.4521,5.4596,5.459,5.487,5.4661,5.4661,5.466,5.4659,0,5.2161,5.2353,5.2523,5.2665,5.2881,5.2992,5.3204,5.3314,5.347,5.3636,5.37,5.3855,5.3996,5.417,5.4261,5.449,5.454,5.4602,5.4624,5.4598,5.459,5.4672,5.4661,5.4669,5.4667,5.4665,5.4664,0,5.232,5.2441,5.2696,5.2903,5.296,5.311,5.3289,5.343,5.3532,5.3741,5.3796,5.396,5.4167,5.4296,5.4561,5.4622,5.4874,5.4891,5.4811,5.4822,5.4934,5.4922,5.5279,5.5331,5.5085,5.5087,5.5089,0,5.2465,5.2613,5.2834,5.2947,5.3053,5.3236,5.336,5.3474,5.3601,5.3819,5.3934,5.4143,5.4318,5.4647,5.4792,5.4994,5.5017,5.5127,5.5049,5.5016,5.5021,5.5011,5.5027,5.5142,5.5144,5.5146,5.5147,0,5.2709,5.276,5.2935,5.313,5.3276,5.3437,5.3597,5.3687,5.3828,5.3968,5.4178,5.4312,5.4579,5.4788,5.5001,5.5115,5.5156,5.5169,5.5208,5.5184,5.5132,5.5163,5.4849,5.5162,5.5161,5.516,5.5159,5.5158,5.2867,5.3,5.3174,5.3367,5.3497,5.3645,5.3786,5.3903,5.4079,5.4302,5.4359,5.4579,5.4757,5.5048,5.5165,5.534,5.5325,5.5381,5.5396,5.5408,5.5411,5.51,5.538,5.538,5.5379,5.5379,5.5379,0,5.3115,5.3228,5.3403,5.3622,5.3773,5.3791,5.3969,5.4095,5.4286,5.4447,5.4615,5.4855,5.5057,5.5214,5.5421,5.5531,5.5555,5.5582,5.5577,5.5603,5.5412,5.5359,5.5559,5.5559,5.5559,5.5559,5.5559,5.5559,5.3262,5.3487,5.3558,5.3849,5.3962,5.4175,5.4274,5.441,5.4538,5.4802,5.4968,5.5067,5.5227,5.5445,5.5631,5.5672,5.5747,5.5771,5.5816,5.5636,5.5616,5.5598,5.5548,5.5785,5.5786,5.5993,5.5995,5.5996]}]]